Wind_Speed
15 20 4 5 6 7 10 14 11 10 11 8 4 4 7 7 6 3 15 15 18 15 15 15 14 15 16 16 14 12 11 11 10 10 10 9 8 7 6 5 4 3 2 3 4 5 6 7 7
11 6 20 18 19 9 9 12 12 11 13 5 7 3 2 5 7 10 18 18 16 14 13 13 13 14 14 14 13 12 11 11 10 9 7 6 5 5 5 4 4 4 4 4 3 7 7 13 15
17 17 10 10 17 12 10 10 8 8 4 3 4 2 7 6 8 19 16 18 17 15 13 12 13 13 13 13 12 12 11 10 9 7 6 5 5 4 4 4 4 4 6 6 8 8 10 9 5
14 16 12 10 14 16 10 11 7 3 2 4 2 9 3 13 11 15 18 18 16 14 14 11 15 12 12 12 12 11 9 9 8 7 6 5 4 4 5 5 5 6 7 8 8 7 8 6 3
15 7 15 10 10 15 10 8 6 4 5 2 4 3 1 7 6 12 14 16 15 14 13 12 11 13 11 12 11 9 7 7 7 5 5 4 4 5 5 4 6 7 7 7 7 5 4 5 5
9 3 6 10 15 12 7 1 8 8 10 1 7 2 10 5 4 9 14 15 16 12 13 12 11 11 11 11 10 7 6 5 4 4 4 4 4 5 5 5 6 8 10 7 6 6 6 8 7
13 11 5 14 10 11 7 6 12 10 9 4 5 2 3 15 7 8 15 11 16 15 12 11 9 9 10 9 8 7 4 2 2 4 5 5 5 4 3 4 6 7 10 10 7 5 7 8 8
7 3 7 10 10 8 3 5 3 8 10 4 2 7 6 8 12 4 13 11 16 14 13 12 10 9 8 9 7 6 3 1 2 5 6 5 3 3 3 3 3 3 2 7 10 7 7 8 8
3 7 3 7 10 7 8 5 6 5 10 10 14 4 6 13 12 8 8 17 13 13 12 12 12 10 9 8 8 6 4 2 3 4 4 4 2 3 4 2 1 3 5 7 9 9 7 7 7
3 4 1 5 8 12 0 6 3 8 6 12 10 3 10 14 11 6 2 6 9 12 11 13 13 12 10 9 8 7 4 3 3 3 3 4 2 5 2 2 1 2 0 6 8 8 7 7 7
4 6 9 2 2 14 5 9 4 3 1 5 6 5 5 7 14 8 2 1 2 7 12 14 14 13 10 11 9 9 7 5 2 2 5 7 3 1 3 5 2 2 1 5 5 7 7 9 9
5 2 5 2 3 6 13 4 6 8 8 11 7 8 4 2 12 13 4 10 4 4 11 15 13 13 11 10 12 10 9 5 2 2 6 6 2 5 5 6 4 2 3 5 5 6 7 9 10
1 3 4 5 3 4 8 6 10 10 12 10 10 5 7 7 7 13 14 10 10 9 7 11 13 14 14 12 14 10 10 6 4 6 8 6 7 5 5 3 2 5 4 3 5 6 5 10 11
8 7 5 1 3 5 3 11 11 15 11 13 6 7 9 10 5 12 14 15 16 10 10 5 11 15 11 10 9 8 10 7 5 4 5 7 8 8 7 3 5 4 3 3 3 5 5 8 11
4 9 9 5 9 4 2 8 13 8 6 8 12 9 13 9 9 7 6 8 14 10 9 8 8 13 11 13 10 9 8 4 4 2 5 8 6 4 4 5 3 3 4 5 8 4 4 3 5
6 9 11 1 11 7 3 7 8 4 10 14 15 15 12 10 6 8 15 11 12 14 15 11 9 10 15 15 14 12 12 6 5 4 4 5 5 3 4 3 0 1 2 3 9 7 5 5 5
8 12 12 7 9 4 4 9 12 8 12 13 15 13 15 15 17 24 13 15 11 8 12 12 11 10 18 18 15 14 14 9 9 5 5 6 5 4 5 4 2 2 5 2 6 5 5 6 5
12 15 11 8 4 8 9 14 11 12 8 9 15 19 22 25 15 20 17 17 14 14 16 10 7 11 13 14 12 14 13 12 10 6 4 6 6 6 6 5 2 3 5 2 1 4 7 5 5
21 12 12 19 15 13 12 16 17 16 14 10 13 14 12 19 2 9 16 19 18 15 17 12 9 12 14 11 8 14 12 12 11 10 6 6 8 11 9 9 7 2 4 4 1 3 3 2 2
7 19 13 11 6 5 13 16 14 9 19 13 16 9 11 14 10 7 17 18 14 20 17 17 14 9 12 13 13 11 13 14 13 12 10 10 9 9 10 11 9 6 5 4 4 2 2 5 3
7 12 11 17 11 12 13 16 15 11 7 13 10 11 12 12 15 12 16 18 16 23 22 20 14 9 9 11 15 14 14 14 14 11 9 10 9 8 11 12 10 8 6 5 5 5 3 6 8
13 9 14 12 16 17 19 15 9 4 6 7 8 10 13 17 12 12 15 19 22 24 25 25 19 17 8 11 9 11 13 14 14 14 13 10 11 7 10 11 9 10 10 10 6 5 4 4 6
12 14 13 13 18 20 19 9 10 10 5 5 10 9 8 12 15 15 17 17 29 30 29 35 27 18 11 8 6 8 12 16 17 15 14 12 11 9 8 10 10 10 11 11 10 6 6 7 5
10 12 15 18 21 13 24 14 7 2 6 7 8 8 9 13 11 15 11 16 19 27 31 49 32 23 17 11 7 5 7 13 17 17 14 12 11 11 9 11 12 12 10 9 8 7 8 7 5
14 12 9 11 3 6 9 6 1 2 9 11 8 9 12 10 10 13 8 12 11 25 17 13 30 28 22 19 12 5 6 8 11 15 16 15 10 11 10 14 12 14 12 11 10 10 10 6 3
8 10 7 4 3 2 3 3 2 4 15 12 13 6 11 14 12 10 8 5 9 7 9 14 26 21 19 20 17 13 6 9 8 11 15 19 10 11 14 12 15 15 11 11 8 9 9 7 5
2 7 14 9 3 3 2 5 8 7 11 13 8 4 1 8 6 6 2 0 5 3 9 15 21 16 16 9 11 4 5 7 8 8 15 17 13 12 14 14 15 15 14 11 8 10 10 8 6
6 8 10 8 1 1 2 5 1 9 15 16 6 23 4 4 4 4 4 1 3 3 4 16 13 7 5 4 3 6 4 9 6 5 10 12 13 13 14 16 14 11 12 11 9 10 10 9 8
9 14 10 8 5 5 2 6 7 5 7 2 12 6 4 5 5 6 7 5 4 1 2 4 3 4 1 5 4 4 6 8 8 5 9 12 13 12 12 12 13 12 15 12 10 12 12 10 8
14 15 14 12 9 10 3 5 4 0 6 5 6 1 2 7 7 7 6 4 3 2 2 2 1 3 1 5 3 2 7 7 7 7 8 10 11 10 13 16 12 11 13 10 11 14 11 10 10
Wind_Direction
49 39 34 160 153 52 85 87 115 92 133 122 110 131 159 195 205 209 164 154 145 154 147 150 155 161 159 152 146 148 151 152 151 147 147 154 155 158 160 175 169 159 175 170 168 198 203 235 198
42 48 69 91 100 108 83 103 88 97 104 135 105 95 180 239 217 177 162 152 148 151 147 151 156 162 162 156 154 158 164 166 161 155 154 155 163 170 181 190 208 202 209 224 237 242 240 221 212
47 53 66 82 84 78 140 100 98 99 159 107 45 12 341 27 157 164 165 152 151 150 148 150 159 166 166 162 160 166 169 169 166 165 168 176 187 197 210 220 240 258 263 261 269 282 244 258 252
15 40 37 60 109 68 147 135 126 204 136 152 282 302 348 63 124 158 161 154 157 155 152 153 159 163 170 169 166 170 175 182 182 181 181 197 206 218 233 235 249 260 266 281 284 291 237 242 241
345 45 43 70 111 63 52 156 97 1 6 8 334 235 101 117 15 167 165 158 166 165 160 154 167 174 173 170 170 174 182 188 189 195 205 216 233 245 253 263 251 265 274 270 283 275 247 233 199
27 324 357 59 76 70 66 335 33 41 350 324 13 36 170 194 341 132 156 172 170 180 167 161 160 167 181 173 168 171 184 195 198 220 232 239 263 274 273 267 257 264 258 251 265 267 223 220 202
24 14 86 73 96 63 68 12 350 358 29 52 163 61 202 167 243 119 146 166 176 180 178 167 177 167 178 186 168 169 185 208 238 235 233 232 239 271 283 307 292 279 248 234 237 223 199 206 209
338 353 65 59 59 71 28 331 28 357 40 59 59 317 245 211 198 178 170 174 173 189 188 181 183 180 175 187 181 175 172 189 248 240 233 235 240 231 247 273 278 274 267 224 217 202 194 207 199
359 301 41 32 33 355 27 289 155 338 357 2 339 238 265 206 199 200 208 178 194 186 192 191 189 187 188 197 195 189 186 197 264 256 240 217 230 300 279 291 338 302 300 197 185 190 184 200 195
94 43 174 39 20 8 275 360 30 263 336 347 321 249 183 199 213 202 99 201 194 195 202 201 198 194 202 210 211 211 211 238 262 287 216 204 199 123 128 190 328 348 15 157 156 154 173 190 179
16 82 148 179 39 26 59 32 287 282 13 353 315 212 169 186 210 200 182 176 260 229 219 211 203 209 212 219 223 225 226 251 303 277 190 190 267 252 217 308 207 338 358 168 166 155 171 179 181
79 255 323 190 41 27 37 58 331 273 293 9 318 203 268 307 220 223 241 222 263 267 224 223 224 209 213 227 220 225 224 246 284 222 178 202 185 169 133 61 78 136 121 130 156 167 175 170 182
68 343 284 348 18 12 60 335 318 295 312 297 298 233 264 289 235 237 244 231 255 240 206 219 219 205 211 217 217 227 223 212 197 209 175 202 202 175 147 132 147 158 158 157 161 161 176 188 186
330 326 173 210 274 337 315 329 311 310 307 328 344 225 220 234 258 229 234 242 249 264 187 283 242 205 232 223 211 217 239 209 206 201 167 178 197 175 150 23 97 166 198 204 222 210 166 174 199
338 308 314 241 214 271 301 7 321 303 280 290 282 239 223 209 238 300 250 270 261 242 247 270 264 252 248 245 213 233 260 250 288 232 183 176 167 170 145 108 97 59 207 258 238 214 215 179 188
294 285 295 76 201 248 252 322 329 282 280 288 276 257 239 228 275 267 250 252 253 250 246 256 293 293 256 248 241 241 245 249 251 272 218 206 163 185 122 131 179 260 302 32 199 199 202 196 185
3 309 331 16 239 249 252 297 333 317 276 275 286 274 222 222 227 234 259 244 272 243 251 290 287 281 243 242 241 234 236 234 246 250 221 219 181 206 182 124 152 296 146 129 127 165 202 158 182
347 4 332 327 326 215 276 319 320 312 319 273 268 281 249 300 267 237 235 249 263 245 252 278 267 270 237 249 254 251 241 230 232 230 248 220 205 206 216 184 203 215 179 157 65 59 71 146 182
309 285 314 294 317 273 290 316 303 305 312 301 299 293 274 259 300 259 251 239 246 251 250 273 282 249 250 272 259 236 239 228 223 229 231 240 215 205 216 207 220 196 200 187 161 39 98 223 261
269 309 292 313 339 293 311 311 290 312 349 343 323 337 302 259 262 231 241 237 248 256 262 266 266 274 254 255 239 225 220 220 225 222 227 250 231 202 207 225 232 234 237 226 183 190 185 194 212
315 307 310 308 332 310 331 317 318 307 358 13 340 302 313 321 247 275 282 247 242 242 251 268 267 256 241 226 233 234 225 225 233 229 222 235 231 218 218 223 234 243 252 243 244 251 214 211 231
278 281 306 314 311 314 321 302 292 42 34 7 343 320 316 309 291 264 238 256 253 231 247 243 253 240 230 235 241 233 229 226 222 228 223 230 240 228 213 216 223 222 226 240 260 252 247 248 237
270 293 299 298 297 304 300 286 271 318 8 37 35 18 309 309 288 238 218 288 243 234 239 232 231 225 225 234 234 229 230 225 225 228 222 229 244 242 237 226 222 219 221 231 222 238 241 256 231
276 277 285 294 293 283 285 284 347 5 326 333 334 338 314 309 310 273 268 290 270 237 302 234 202 216 213 194 181 199 229 235 233 230 230 234 245 236 237 227 230 229 218 229 226 232 236 240 232
252 280 303 320 324 219 314 287 28 202 305 304 297 332 342 344 341 339 316 342 300 265 320 177 194 217 207 212 203 193 232 234 240 230 228 234 223 235 227 232 213 218 216 224 212 218 225 239 233
214 278 265 239 227 215 43 356 272 239 291 287 305 280 338 334 333 338 297 353 341 288 311 209 201 214 219 230 206 208 217 261 246 230 219 226 243 221 228 226 207 213 209 217 208 219 230 231 226
290 317 324 313 61 121 219 205 174 257 277 287 227 271 231 332 329 335 359 70 13 28 54 131 190 202 251 185 195 170 210 260 253 214 209 222 224 223 225 214 203 210 211 216 216 225 238 218 236
282 348 350 8 354 47 258 272 168 275 293 291 213 336 159 58 11 24 51 23 30 80 71 115 126 158 128 158 157 197 200 242 273 214 209 221 233 228 214 206 200 209 225 227 222 236 233 222 231
38 40 17 359 298 169 153 247 196 314 297 322 359 34 133 69 39 39 33 43 36 83 1 156 145 84 187 184 201 197 220 238 247 234 210 215 235 222 201 203 214 228 218 215 224 237 229 223 241
21 19 10 355 310 305 242 246 164 271 267 247 336 69 41 34 17 14 18 11 25 100 5 35 13 199 0 210 229 243 225 232 236 231 225 216 226 217 208 198 204 215 212 214 218 226 224 224 237
Height
3191 3191 3186 3188 3192 3190 3191 3195 3192 3193 3190 3191 3189 3189 3191 3192 3191 3193 3191 3191 3190 3193 3193 3195 3197 3199 3201 3201 3203 3205 3206 3206 3207 3208 3209 3210 3211 3211 3212 3213 3215 3216 3217 3218 3219 3218 3219 3220 3220
3193 3193 3192 3191 3191 3195 3195 3196 3194 3193 3192 3192 3191 3190 3191 3192 3189 3189 3189 3191 3192 3194 3195 3197 3199 3201 3202 3203 3205 3206 3207 3208 3208 3209 3211 3212 3212 3212 3213 3214 3214 3216 3216 3217 3218 3218 3218 3218 3218
3195 3195 3196 3195 3195 3194 3195 3196 3197 3195 3193 3192 3192 3191 3191 3191 3189 3189 3190 3190 3193 3195 3197 3199 3200 3202 3203 3204 3205 3206 3208 3208 3209 3211 3212 3213 3213 3213 3213 3214 3214 3215 3215 3216 3216 3217 3217 3217 3217
3197 3198 3198 3198 3196 3195 3196 3196 3200 3196 3193 3192 3191 3191 3192 3193 3193 3192 3191 3192 3194 3196 3198 3200 3201 3203 3204 3205 3206 3206 3208 3209 3210 3210 3211 3212 3212 3212 3212 3212 3213 3213 3213 3214 3214 3215 3215 3215 3213
3198 3198 3197 3196 3197 3194 3194 3197 3200 3198 3193 3193 3193 3190 3189 3191 3194 3193 3193 3193 3195 3197 3199 3200 3201 3203 3205 3206 3206 3207 3207 3208 3209 3210 3210 3210 3211 3211 3211 3211 3211 3211 3211 3212 3213 3214 3214 3214 3214
3198 3199 3199 3198 3199 3198 3196 3196 3196 3195 3193 3194 3193 3190 3190 3191 3193 3193 3193 3194 3196 3199 3199 3200 3202 3203 3206 3206 3206 3206 3207 3207 3209 3209 3208 3209 3209 3210 3210 3211 3210 3209 3209 3210 3211 3211 3212 3212 3213
3199 3200 3200 3200 3201 3200 3199 3197 3194 3195 3193 3195 3194 3190 3190 3191 3192 3195 3195 3195 3197 3199 3200 3200 3202 3203 3205 3206 3206 3206 3207 3208 3208 3208 3207 3207 3208 3209 3209 3210 3209 3208 3206 3208 3210 3209 3210 3210 3211
3199 3202 3201 3202 3201 3200 3199 3198 3196 3195 3194 3194 3193 3191 3188 3188 3191 3194 3196 3197 3198 3199 3200 3201 3202 3203 3204 3205 3206 3206 3207 3208 3207 3207 3207 3207 3208 3208 3208 3208 3207 3207 3206 3206 3208 3209 3209 3209 3209
3199 3201 3200 3201 3201 3201 3199 3195 3195 3195 3194 3193 3192 3190 3190 3189 3190 3192 3194 3196 3197 3197 3199 3201 3203 3204 3204 3204 3205 3206 3207 3207 3207 3207 3207 3208 3208 3208 3208 3208 3207 3207 3205 3205 3206 3207 3208 3209 3209
3199 3200 3199 3200 3199 3198 3198 3195 3196 3194 3194 3193 3190 3188 3189 3190 3189 3192 3194 3195 3196 3197 3198 3201 3203 3204 3204 3203 3204 3205 3207 3206 3206 3206 3207 3207 3207 3208 3208 3208 3207 3207 3206 3205 3206 3206 3207 3208 3210
3198 3198 3198 3199 3199 3199 3199 3198 3197 3194 3193 3192 3189 3187 3189 3188 3189 3191 3194 3196 3197 3198 3198 3200 3202 3204 3204 3204 3204 3205 3206 3206 3206 3205 3206 3206 3206 3208 3207 3208 3207 3207 3207 3206 3207 3207 3207 3207 3209
3196 3197 3197 3198 3198 3198 3197 3197 3196 3192 3191 3189 3188 3186 3186 3186 3185 3189 3192 3195 3196 3197 3199 3199 3201 3203 3203 3203 3203 3205 3205 3205 3204 3205 3206 3206 3207 3207 3207 3207 3207 3207 3207 3206 3207 3207 3208 3208 3209
3195 3196 3196 3196 3196 3195 3195 3194 3193 3190 3189 3188 3186 3185 3185 3185 3185 3187 3190 3193 3195 3196 3197 3200 3200 3202 3203 3203 3203 3204 3204 3204 3204 3204 3205 3207 3206 3208 3208 3208 3205 3206 3206 3206 3206 3207 3206 3207 3209
3194 3194 3194 3195 3195 3194 3193 3192 3190 3189 3189 3189 3187 3185 3184 3184 3184 3186 3188 3190 3192 3194 3196 3197 3198 3200 3202 3203 3203 3203 3205 3204 3203 3204 3204 3205 3207 3210 3200 3209 3206 3206 3206 3206 3205 3207 3206 3206 3208
3191 3193 3192 3191 3192 3193 3192 3192 3189 3188 3188 3186 3182 3184 3186 3187 3186 3182 3187 3190 3191 3193 3193 3195 3197 3198 3199 3200 3201 3202 3204 3203 3201 3203 3203 3204 3206 3208 3209 3206 3206 3205 3206 3205 3206 3206 3207 3207 3208
3191 3190 3189 3189 3189 3191 3191 3190 3185 3184 3183 3183 3184 3185 3188 3187 3188 3187 3189 3187 3189 3192 3193 3193 3194 3195 3197 3198 3199 3201 3202 3202 3201 3201 3202 3202 3204 3205 3206 3205 3205 3205 3207 3206 3205 3205 3205 3205 3206
3191 3188 3189 3187 3188 3190 3190 3187 3185 3183 3182 3181 3181 3187 3188 3190 3188 3189 3188 3189 3189 3190 3192 3193 3193 3194 3196 3195 3196 3198 3200 3201 3201 3201 3201 3202 3203 3204 3206 3204 3206 3206 3206 3207 3206 3205 3205 3204 3206
3191 3190 3189 3188 3189 3188 3187 3185 3183 3183 3182 3181 3181 3181 3178 3167 3183 3182 3184 3186 3189 3190 3191 3191 3191 3192 3193 3193 3193 3194 3197 3199 3199 3200 3201 3201 3203 3204 3204 3204 3206 3207 3207 3207 3205 3205 3203 3203 3205
3191 3190 3188 3186 3188 3187 3185 3183 3182 3180 3179 3178 3177 3174 3176 3174 3179 3177 3176 3181 3184 3187 3187 3189 3189 3189 3190 3190 3192 3192 3194 3196 3197 3198 3199 3201 3201 3202 3202 3204 3205 3206 3208 3207 3205 3204 3203 3204 3205
3189 3188 3186 3186 3186 3185 3182 3182 3181 3180 3179 3174 3173 3174 3174 3174 3174 3175 3174 3177 3178 3182 3184 3185 3186 3185 3186 3189 3190 3191 3191 3193 3194 3196 3197 3199 3200 3200 3200 3202 3204 3205 3205 3204 3204 3204 3204 3204 3205
3188 3186 3186 3186 3184 3183 3181 3180 3180 3181 3179 3174 3169 3169 3170 3170 3174 3172 3172 3175 3176 3178 3181 3182 3183 3184 3185 3186 3187 3188 3189 3190 3192 3194 3196 3197 3197 3199 3198 3199 3201 3202 3203 3202 3203 3204 3205 3205 3204
3186 3186 3186 3185 3182 3182 3181 3178 3177 3178 3178 3177 3174 3172 3170 3168 3171 3174 3172 3174 3173 3173 3177 3178 3182 3183 3182 3183 3183 3184 3187 3188 3189 3190 3193 3195 3195 3196 3195 3196 3198 3200 3201 3201 3203 3202 3201 3202 3203
3184 3184 3184 3183 3181 3181 3178 3178 3174 3176 3175 3176 3176 3171 3170 3168 3168 3169 3169 3167 3165 3166 3170 3170 3178 3180 3180 3180 3181 3182 3184 3184 3186 3188 3190 3191 3192 3192 3193 3194 3196 3198 3199 3200 3201 3201 3200 3201 3202
3182 3182 3181 3181 3180 3179 3175 3175 3175 3174 3176 3177 3172 3174 3170 3168 3167 3163 3164 3162 3163 3165 3163 3152 3158 3174 3175 3176 3177 3179 3180 3182 3183 3185 3188 3189 3189 3190 3191 3193 3194 3196 3197 3198 3198 3199 3199 3200 3200
3180 3180 3180 3181 3178 3176 3174 3173 3176 3177 3175 3174 3172 3174 3172 3167 3163 3162 3163 3164 3164 3159 3159 3128 3156 3168 3169 3169 3172 3176 3177 3178 3180 3182 3184 3185 3185 3186 3188 3190 3191 3192 3195 3195 3195 3196 3198 3198 3197
3177 3179 3179 3181 3180 3175 3174 3175 3176 3176 3173 3171 3172 3171 3171 3166 3163 3161 3163 3163 3163 3159 3160 3155 3159 3166 3166 3165 3168 3172 3174 3177 3177 3178 3179 3182 3184 3183 3185 3187 3188 3190 3191 3193 3193 3194 3195 3195 3196
3176 3177 3177 3175 3174 3174 3175 3174 3174 3172 3169 3169 3171 3168 3169 3166 3163 3161 3161 3164 3162 3161 3157 3151 3160 3165 3163 3163 3164 3168 3170 3175 3176 3174 3175 3178 3180 3181 3182 3184 3186 3187 3189 3190 3191 3192 3192 3194 3194
3176 3175 3174 3174 3176 3177 3176 3174 3173 3171 3169 3167 3168 3169 3165 3165 3164 3162 3162 3163 3161 3159 3158 3158 3161 3164 3162 3163 3165 3168 3168 3172 3174 3173 3173 3174 3176 3176 3179 3181 3182 3185 3186 3188 3189 3190 3191 3191 3191
3174 3173 3174 3173 3173 3173 3179 3173 3169 3168 3167 3168 3168 3166 3165 3165 3164 3162 3160 3162 3160 3158 3159 3160 3159 3160 3165 3165 3166 3165 3166 3168 3171 3171 3171 3172 3174 3173 3174 3177 3179 3180 3183 3184 3186 3188 3189 3188 3189
3173 3173 3172 3172 3172 3169 3170 3169 3167 3167 3167 3169 3170 3170 3170 3168 3167 3166 3163 3164 3164 3162 3161 3160 3160 3162 3162 3164 3165 3164 3165 3167 3168 3168 3168 3168 3170 3170 3171 3173 3175 3177 3179 3180 3182 3185 3185 3185 3186